User: anonymous   Login
Location: Bishopstone
(51.0167°N, 1.9000°W)
Time: 14:57:11
(UTC+00:00)
Language:

PRISM - Orbit

View from above orbital plane
View from above orbital plane
View from above satellite
View from above satellite

Ground track
Ground track

The orbit data is extracted from the following two-line orbital elements,

1 33493U 09002B   20020.79546305 -.00000102  00000-0 -32470-5 0  9992
2 33493  98.1332 315.0538 0014677 183.7804 176.3308 14.96877395597470
Epoch (UTC): 20 January 2020 19:05:28
Eccentricity: 0.0014677
inclination: 98.1332°
perigee height: 566 km
apogee height: 587 km
right ascension of ascending node: 315.0538°
argument of perigee: 183.7804°
revolutions per day: 14.96877395
mean anomaly at epoch: 176.3308°
orbit number at epoch: 59747

The dashed part of the orbit path shows where the satellite is in the earth's shadow,  

DLR